Back to catalog

STARLINK-36285

AliveCommunicationsVLEO
NORAD 68530·PAYLOAD·🇺🇸 United States

Launched Mar 30, 2026 from Cape Canaveral Space Force Station

Loading…

Next Passes (next 24 hours)

TLE

FreshSource: CelesTrak SupGP

Epoch: Sep 14, 2026, 15:18 UTC

1 68530C 26068Y   26257.63798611  .00036038  00000+0  10651-2 0  2578
2 68530  53.1598 329.1846 0001126  65.0370  96.2335 15.34362946    11

Track STARLINK-36285 in real time with AllMySat

Download on the App Store